This is the latest recevied weather packets stored in our database for station/object KI4MRC. If no packets are shown the sender has not sent any weather packets the latest 10 day(s).
| Time | Temp. | Humidity | Pressure | Rain* | Wind** | Luminosity | Snow |
|---|---|---|---|---|---|---|---|
| 1778075916 | 28.89° C | 74% | 1016.9 hPa | 0 mm | - | 485 W/m² | - |
| 1778075612 | 28.89° C | 75% | 1016.7 hPa | 0 mm | - | 378 W/m² | - |
| 1778075309 | 28.89° C | 73% | 1016.8 hPa | 0 mm | - | 397 W/m² | - |
| 1778075005 | 28.33° C | 77% | 1016.8 hPa | 0 mm | - | 554 W/m² | - |
| 1778074702 | 28.33° C | 74% | 1016.7 hPa | 0 mm | - | 460 W/m² | - |
| 1778074399 | 27.78° C | 77% | 1016.8 hPa | 0 mm | - | 444 W/m² | - |
| 1778074096 | 27.78° C | 77% | 1016.5 hPa | 0 mm | - | 309 W/m² | - |
| 1778073793 | 27.78° C | 76% | 1016.7 hPa | 0 mm | - | 213 W/m² | - |
| 1778073491 | 27.78° C | 76% | 1016.7 hPa | 0 mm | - | 349 W/m² | - |
| 1778073187 | 27.22° C | 78% | 1016.7 hPa | 0 mm | - | 256 W/m² | - |
| 1778072884 | 27.22° C | 79% | 1016.7 hPa | 0 mm | - | 263 W/m² | - |
| 1778072580 | 26.67° C | 79% | 1016.5 hPa | 0 mm | - | 335 W/m² | - |
| 1778072279 | 26.67° C | 82% | 1016.6 hPa | 0 mm | - | 291 W/m² | - |
| 1778071976 | 26.11° C | 85% | 1016.6 hPa | 0 mm | - | 260 W/m² | - |
| 1778071674 | 25.56° C | 86% | 1016.6 hPa | 0 mm | - | 114 W/m² | - |
| 1778071372 | 25.56° C | 89% | 1016.5 hPa | 0 mm | - | 121 W/m² | - |
| 1778071069 | 25° C | 91% | 1016.5 hPa | 0 mm | - | 115 W/m² | - |
| 1778070768 | 24.44° C | 94% | 1016.5 hPa | 0 mm | - | 87 W/m² | - |
| 1778070464 | 24.44° C | 95% | 1016.3 hPa | 0 mm | - | 84 W/m² | - |
| 1778070161 | 23.89° C | 97% | 1016.5 hPa | 0 mm | - | 83 W/m² | - |
| 1778069859 | 23.89° C | 98% | 1016.5 hPa | 0 mm | - | 76 W/m² | - |
| 1778069556 | 23.89° C | 99% | 1016.4 hPa | 0 mm | - | 71 W/m² | - |
| 1778069253 | 23.33° C | 99% | 1016.5 hPa | 0 mm | - | 80 W/m² | - |
| 1778068951 | 23.33° C | 99% | 1016.5 hPa | 0 mm | - | 83 W/m² | - |
| 1778068648 | 22.78° C | 99% | 1016.5 hPa | 0 mm | - | 84 W/m² | - |
* Rain latest hour (hover to see other rain measurements)
** Current wind speed in m/s (hover to see current wind gust speed)